DW8397 Weather Reports


time (UTC)temp
F
wind
direction
speed
knots
gust
knots
rain 1hr
in
rain 24hr
in
rain mn
in
humidity
%
barometer
mb
20260901140053 58 169 0.0 0.0 0.00 0.27 0.27 88 1015.2
20260901134604 58 159 0.0 0.0 0.00 0.27 0.27 88 1015.3
20260901133049 59 198 0.0 0.0 0.00 0.27 0.27 88 1015.5
20260901131543 59 198 0.0 0.0 0.00 0.27 0.27 88 1015.7
20260901130044 59 12 0.0 0.0 0.00 0.27 0.27 88 1015.6
20260901124539 59 284 0.0 0.0 0.01 0.27 0.27 88 1015.7
20260901123036 59 316 0.0 0.0 0.03 0.27 0.27 88 1015.8
20260901121533 59 351 0.0 0.0 0.08 0.27 0.27 88 1015.8
20260901120047 60 351 0.0 0.0 0.15 0.27 0.27 88 1015.9
20260901114530 60 355 0.0 0.0 0.19 0.26 0.26 89 1015.8
20260901113032 60 351 0.0 0.0 0.20 0.24 0.24 89 1015.8
20260901111526 61 28 0.0 0.0 0.17 0.18 0.18 89 1015.5
20260901110024 61 360 0.0 0.0 0.12 0.12 0.12 89 1015.9
20260901104525 61 360 0.0 0.0 0.07 0.07 0.07 89 1016.1
20260901103027 61 360 0.0 0.0 0.04 0.04 0.04 89 1015.7
20260901101521 61 360 0.0 0.0 0.01 0.01 0.01 89 1015.7
20260901100022 61 319 0.0 0.0 0.00 0.00 0.00 89 1015.4
20260901094527 61 319 0.0 0.0 0.00 0.00 0.00 89 1015.1
20260901093019 62 319 0.0 0.0 0.00 0.00 0.00 89 1014.9
20260901091517 62 319 0.0 0.0 0.00 0.00 0.00 89 1015.0
20260901090016 62 319 0.0 0.0 0.00 0.00 0.00 89 1015.2
20260901084516 62 319 0.0 0.0 0.00 0.00 0.00 89 1015.4
20260901083015 62 319 0.0 0.0 0.00 0.00 0.00 89 1015.3
20260901081514 62 319 0.0 0.0 0.00 0.00 0.00 88 1015.5
20260901080013 62 320 0.0 0.0 0.00 0.00 0.00 89 1015.4
20260901074513 62 317 0.0 0.0 0.00 0.00 0.00 89 1015.3
20260901073014 62 317 0.0 0.0 0.00 0.00 0.00 89 1015.5
20260901071520 62 317 0.0 0.0 0.00 0.00 0.00 88 1015.4
20260901070019 62 317 0.0 0.0 0.00 0.00 0.00 88 1015.6
20260901064507 63 317 0.0 0.0 0.00 0.00 0.00 88 1015.8
20260901063006 63 317 0.0 0.0 0.00 0.00 0.00 88 1016.1
20260901061505 63 317 0.0 0.0 0.00 0.00 0.00 88 1016.0
20260901060003 63 317 0.0 0.0 0.00 0.00 0.00 88 1016.1
20260901054508 63 317 0.0 0.0 0.00 0.00 0.00 88 1016.2
20260901053001 63 317 0.0 0.0 0.00 0.00 0.00 88 1016.2
20260901051611 64 317 0.0 0.0 0.00 0.00 0.00 88 1016.3
20260901050059 64 317 0.0 0.0 0.00 0.00 0.00 88 1016.4
20260901044608 64 317 0.0 0.0 0.00 0.00 0.00 88 1016.5
20260901043057 64 317 0.0 0.0 0.00 0.00 0.00 88 1016.3
20260901041555 64 317 0.0 0.0 0.00 0.00 0.00 87 1016.3
20260901040109 64 317 0.0 0.0 0.00 0.00 0.00 87 1016.2
20260901034607 64 317 0.0 0.0 0.00 0.00 0.00 87 1016.2
20260901033051 64 317 0.0 0.0 0.00 0.00 0.00 87 1016.5
20260901031551 64 317 0.0 0.0 0.00 0.00 0.00 87 1016.5
20260901030049 64 317 0.0 0.0 0.00 0.00 0.00 87 1016.5
20260901024553 64 317 0.0 0.0 0.00 0.00 0.00 86 1016.7
20260901023100 64 317 0.0 0.0 0.00 0.00 0.00 86 1016.6
20260901021554 64 317 0.0 0.0 0.00 0.00 0.00 85 1016.6
20260901020048 64 317 0.0 0.0 0.00 0.00 0.00 85 1016.6
20260901014553 64 317 0.0 0.0 0.00 0.00 0.00 85 1016.6
20260901013047 64 317 0.0 0.0 0.00 0.00 0.00 84 1016.6
20260901011547 64 317 0.0 0.0 0.00 0.00 0.00 84 1016.5
20260901010046 65 317 0.0 0.0 0.00 0.00 0.00 84 1016.6
20260901004645 65 317 0.0 0.0 0.00 0.00 0.00 83 1016.5
20260901003045 65 317 0.0 0.0 0.00 0.00 0.00 82 1016.6
20260901001644 66 317 0.0 0.0 0.00 0.00 0.00 81 1016.5
20260901000045 66 317 0.0 0.0 0.00 0.00 0.00 80 1016.4
20260831234545 67 317 0.0 0.0 0.00 0.00 0.00 79 1016.4
20260831233042 68 317 0.0 0.0 0.00 0.00 0.00 80 1016.4
20260831231542 69 317 0.0 0.0 0.00 0.00 0.00 78 1016.6
20260831230041 70 317 0.0 0.0 0.00 0.00 0.00 75 1016.8
20260831224538 71 317 0.0 0.0 0.00 0.00 0.00 73 1017.0
20260831223040 71 317 0.0 0.0 0.00 0.00 0.00 71 1017.0
20260831221538 72 317 0.0 0.0 0.00 0.00 0.00 66 1017.1
20260831220036 72 278 0.0 0.0 0.00 0.00 0.00 67 1016.9
20260831214538 72 278 0.0 0.0 0.00 0.00 0.00 64 1016.9
20260831213035 73 184 0.0 0.0 0.00 0.00 0.00 64 1016.9
20260831211536 73 300 0.0 5.2 0.00 0.00 0.00 62 1016.9
20260831210034 73 219 0.0 0.0 0.00 0.00 0.00 61 1016.9
20260831204533 73 262 0.0 2.6 0.00 0.00 0.00 58 1016.9
20260831203031 74 214 0.0 4.3 0.00 0.00 0.00 59 1017.0
20260831201531 74 346 0.9 9.6 0.00 0.00 0.00 57 1017.1
20260831200040 74 205 0.9 7.8 0.00 0.00 0.00 58 1017.2
20260831194531 75 325 1.7 6.1 0.00 0.00 0.00 53 1017.2
20260831193037 76 159 0.0 6.1 0.00 0.00 0.00 55 1017.4
20260831191534 75 308 0.0 5.2 0.00 0.00 0.00 58 1017.4
20260831190027 75 188 1.7 6.1 0.00 0.00 0.00 55 1017.5
20260831184526 75 184 0.0 2.6 0.00 0.00 0.00 59 1017.5
20260831183021 74 298 0.0 3.5 0.00 0.00 0.00 61 1017.5
20260831181522 73 245 0.0 1.7 0.00 0.00 0.00 62 1017.9
20260831180024 73 221 0.0 1.7 0.00 0.00 0.00 61 1017.9
20260831174522 73 302 0.0 0.0 0.00 0.00 0.00 63 1018.1
20260831173015 73 276 0.0 5.2 0.00 0.00 0.00 66 1018.2
20260831171515 72 183 0.0 0.0 0.00 0.00 0.00 64 1018.2
20260831170015 72 306 0.0 1.7 0.00 0.00 0.00 66 1018.3
20260831164528 72 314 0.0 0.0 0.00 0.00 0.00 68 1018.5
20260831163013 72 309 0.0 0.0 0.00 0.00 0.00 69 1018.6
20260831161512 72 184 0.0 0.0 0.00 0.00 0.00 66 1018.8
20260831160011 72 164 0.0 0.0 0.00 0.00 0.00 69 1018.9
20260831154511 72 185 0.0 0.0 0.00 0.00 0.00 69 1018.9
20260831153010 72 184 0.0 0.0 0.00 0.00 0.00 66 1019.0
20260831151512 73 211 0.0 0.0 0.00 0.00 0.00 70 1018.9
20260831150010 72 285 0.0 0.0 0.00 0.00 0.00 70 1018.8
20260831144510 70 191 0.0 0.0 0.00 0.00 0.00 70 1019.0
20260831143106 69 151 0.0 0.0 0.00 0.00 0.00 72 1019.0
20260831141607 68 171 0.0 0.0 0.00 0.00 0.00 77 1019.1